Time,TemperatureF,DewpointF,PressureIn,WindDirection,WindDirectionDegrees,WindSpeedMPH,WindSpeedGustMPH,Humidity,HourlyPrecipIn,Conditions,Clouds,dailyrainin,SolarRadiationWatts/m^2,SoftwareType,DateUTC
2013-02-19 00:04:00,44.9,38.0,29.96,North,-999,0.0,0.0,76,0.00,,,0.00,0,weatherlink.com 1.10,2013-02-19 08:04:00,
2013-02-19 00:19:00,44.9,39.0,29.96,North,-999,0.0,0.0,80,0.00,,,0.00,0,weatherlink.com 1.10,2013-02-19 08:19:00,
2013-02-19 00:34:00,44.7,38.0,29.96,North,360,0.0,0.0,77,0.00,,,0.00,0,weatherlink.com 1.10,2013-02-19 08:34:00,
2013-02-19 00:49:00,44.6,38.0,29.96,North,360,0.0,0.0,79,0.00,,,0.00,0,weatherlink.com 1.10,2013-02-19 08:49:00,
2013-02-19 01:04:00,44.8,40.0,29.96,North,360,0.0,0.0,83,0.00,,,0.00,0,weatherlink.com 1.10,2013-02-19 09:04:00,
2013-02-19 01:19:00,44.6,40.0,29.96,North,360,0.0,0.0,84,0.00,,,0.00,0,weatherlink.com 1.10,2013-02-19 09:19:00,
2013-02-19 01:34:00,44.1,40.0,29.96,North,360,0.0,0.0,85,0.00,,,0.00,0,weatherlink.com 1.10,2013-02-19 09:34:00,
2013-02-19 01:49:00,43.8,39.0,29.95,North,360,0.0,0.0,84,0.00,,,0.00,0,weatherlink.com 1.10,2013-02-19 09:49:00,
2013-02-19 02:05:00,44.0,40.0,29.95,North,360,0.0,0.0,85,0.00,,,0.00,0,weatherlink.com 1.10,2013-02-19 10:05:00,
2013-02-19 02:20:00,43.7,40.0,29.94,North,360,0.0,0.0,86,0.00,,,0.00,0,weatherlink.com 1.10,2013-02-19 10:20:00,
2013-02-19 02:35:00,43.3,40.0,29.93,North,360,0.0,0.0,87,0.00,,,0.00,0,weatherlink.com 1.10,2013-02-19 10:35:00,
2013-02-19 02:49:00,43.5,40.0,29.93,North,-999,0.0,0.0,88,0.00,,,0.00,0,weatherlink.com 1.10,2013-02-19 10:49:00,
2013-02-19 03:05:00,43.7,40.0,29.92,North,-999,0.0,0.0,88,0.00,,,0.00,0,weatherlink.com 1.10,2013-02-19 11:05:00,
2013-02-19 03:20:00,43.6,40.0,29.92,North,-999,0.0,0.0,88,0.00,,,0.00,0,weatherlink.com 1.10,2013-02-19 11:20:00,
2013-02-19 03:35:00,43.3,40.0,29.91,North,360,0.0,0.0,88,0.00,,,0.00,0,weatherlink.com 1.10,2013-02-19 11:35:00,
2013-02-19 03:49:00,43.0,40.0,29.91,North,-999,0.0,0.0,89,0.00,,,0.00,0,weatherlink.com 1.10,2013-02-19 11:49:00,
2013-02-19 04:05:00,43.0,40.0,29.91,North,-999,0.0,0.0,90,0.00,,,0.00,0,weatherlink.com 1.10,2013-02-19 12:05:00,
2013-02-19 04:19:00,43.2,41.0,29.91,North,360,0.0,0.0,90,0.00,,,0.00,0,weatherlink.com 1.10,2013-02-19 12:19:00,
2013-02-19 04:35:00,43.1,40.0,29.90,North,360,0.0,0.0,89,0.00,,,0.00,0,weatherlink.com 1.10,2013-02-19 12:35:00,
2013-02-19 04:50:00,43.2,40.0,29.90,North,-999,0.0,0.0,89,0.00,,,0.00,0,weatherlink.com 1.10,2013-02-19 12:50:00,
2013-02-19 05:05:00,43.6,41.0,29.89,North,-999,0.0,0.0,90,0.00,,,0.00,0,weatherlink.com 1.10,2013-02-19 13:05:00,
2013-02-19 05:20:00,44.1,41.0,29.89,North,-999,0.0,0.0,88,0.00,,,0.00,0,weatherlink.com 1.10,2013-02-19 13:20:00,
2013-02-19 05:35:00,44.4,42.0,29.89,North,-999,0.0,0.0,91,0.03,,,0.03,0,weatherlink.com 1.10,2013-02-19 13:35:00,
2013-02-19 05:50:00,44.3,42.0,29.88,North,-999,0.0,0.0,92,0.03,,,0.03,0,weatherlink.com 1.10,2013-02-19 13:50:00,
2013-02-19 06:05:00,43.9,42.0,29.88,North,-999,0.0,0.0,93,0.03,,,0.03,0,weatherlink.com 1.10,2013-02-19 14:05:00,
2013-02-19 06:20:00,43.7,42.0,29.87,North,-999,0.0,0.0,93,0.03,,,0.03,0,weatherlink.com 1.10,2013-02-19 14:20:00,
2013-02-19 06:35:00,43.4,42.0,29.86,North,-999,0.0,0.0,93,0.00,,,0.03,0,weatherlink.com 1.10,2013-02-19 14:35:00,
2013-02-19 06:50:00,43.5,42.0,29.86,North,-999,0.0,0.0,94,0.01,,,0.04,0,weatherlink.com 1.10,2013-02-19 14:50:00,
2013-02-19 07:05:00,43.7,42.0,29.85,North,-999,0.0,0.0,94,0.01,,,0.04,0,weatherlink.com 1.10,2013-02-19 15:05:00,
2013-02-19 07:20:00,43.8,42.0,29.85,North,-999,0.0,0.0,94,0.01,,,0.04,11,weatherlink.com 1.10,2013-02-19 15:20:00,
2013-02-19 07:35:00,43.8,42.0,29.85,North,-999,0.0,0.0,94,0.01,,,0.04,23,weatherlink.com 1.10,2013-02-19 15:35:00,
2013-02-19 07:50:00,43.5,42.0,29.84,North,-999,0.0,0.0,93,0.00,,,0.04,39,weatherlink.com 1.10,2013-02-19 15:50:00,
2013-02-19 08:05:00,43.7,42.0,29.84,North,-999,0.0,0.0,93,0.00,,,0.04,32,weatherlink.com 1.10,2013-02-19 16:05:00,
2013-02-19 08:20:00,44.3,43.0,29.83,North,-999,0.0,0.0,94,0.00,,,0.04,33,weatherlink.com 1.10,2013-02-19 16:20:00,
2013-02-19 08:35:00,44.9,43.0,29.82,North,-999,0.0,0.0,94,0.01,,,0.05,28,weatherlink.com 1.10,2013-02-19 16:35:00,
2013-02-19 08:50:00,44.9,43.0,29.82,North,-999,0.0,0.0,94,0.04,,,0.08,28,weatherlink.com 1.10,2013-02-19 16:50:00,
2013-02-19 09:05:00,44.6,43.0,29.82,North,-999,0.0,0.0,94,0.06,,,0.10,32,weatherlink.com 1.10,2013-02-19 17:05:00,
2013-02-19 09:20:00,44.4,43.0,29.82,North,360,0.0,0.0,94,0.07,,,0.11,46,weatherlink.com 1.10,2013-02-19 17:20:00,
2013-02-19 09:35:00,44.2,43.0,29.82,North,360,0.0,0.0,94,0.07,,,0.12,19,weatherlink.com 1.10,2013-02-19 17:35:00,
2013-02-19 09:51:00,43.3,42.0,29.82,North,360,0.0,0.0,94,0.08,,,0.16,69,weatherlink.com 1.10,2013-02-19 17:51:00,
2013-02-19 10:05:00,42.7,41.0,29.82,North,-999,0.0,0.0,94,0.10,,,0.20,21,weatherlink.com 1.10,2013-02-19 18:05:00,
2013-02-19 10:21:00,42.1,41.0,29.83,North,-999,0.0,0.0,94,0.13,,,0.24,33,weatherlink.com 1.10,2013-02-19 18:21:00,
2013-02-19 10:35:00,41.8,40.0,29.83,North,360,0.0,0.0,94,0.16,,,0.28,40,weatherlink.com 1.10,2013-02-19 18:35:00,
2013-02-19 10:50:00,41.6,40.0,29.82,North,-999,0.0,0.0,94,0.13,,,0.29,137,weatherlink.com 1.10,2013-02-19 18:50:00,
2013-02-19 11:05:00,42.5,41.0,29.82,North,-999,0.0,0.0,95,0.09,,,0.29,223,weatherlink.com 1.10,2013-02-19 19:05:00,
2013-02-19 11:21:00,42.9,41.0,29.82,North,-999,0.0,0.0,94,0.05,,,0.29,90,weatherlink.com 1.10,2013-02-19 19:21:00,
2013-02-19 11:35:00,43.1,41.0,29.81,North,-999,0.0,0.0,93,0.01,,,0.29,165,weatherlink.com 1.10,2013-02-19 19:35:00,
2013-02-19 11:50:00,43.0,41.0,29.81,North,-999,0.0,0.0,92,0.03,,,0.32,67,weatherlink.com 1.10,2013-02-19 19:50:00,
2013-02-19 12:05:00,41.4,39.0,29.81,North,-999,0.0,0.0,91,0.04,,,0.33,88,weatherlink.com 1.10,2013-02-19 20:05:00,
2013-02-19 12:20:00,41.2,39.0,29.81,North,-999,0.0,0.0,92,0.04,,,0.33,116,weatherlink.com 1.10,2013-02-19 20:20:00,
2013-02-19 12:35:00,41.3,39.0,29.81,North,-999,0.0,0.0,92,0.05,,,0.34,40,weatherlink.com 1.10,2013-02-19 20:35:00,
2013-02-19 12:50:00,40.3,38.0,29.81,North,-999,0.0,0.0,91,0.05,,,0.37,32,weatherlink.com 1.10,2013-02-19 20:50:00,
2013-02-19 13:06:00,39.6,38.0,29.79,North,-999,0.0,0.0,92,0.05,,,0.38,148,weatherlink.com 1.10,2013-02-19 21:06:00,
2013-02-19 13:36:00,41.5,40.0,29.79,North,-999,0.0,0.0,93,0.04,,,0.38,243,weatherlink.com 1.10,2013-02-19 21:36:00,
2013-02-19 13:51:00,41.6,39.0,29.78,North,-999,0.0,0.0,91,0.02,,,0.39,162,weatherlink.com 1.10,2013-02-19 21:51:00,
2013-02-19 14:06:00,41.2,39.0,29.78,North,360,0.0,0.0,90,0.01,,,0.39,137,weatherlink.com 1.10,2013-02-19 22:06:00,
2013-02-19 14:21:00,42.1,40.0,29.77,North,360,0.0,0.0,92,0.01,,,0.39,135,weatherlink.com 1.10,2013-02-19 22:21:00,
2013-02-19 14:36:00,43.2,40.0,29.77,North,360,0.0,0.0,87,0.01,,,0.39,155,weatherlink.com 1.10,2013-02-19 22:36:00,
2013-02-19 14:51:00,43.5,39.0,29.77,North,360,0.0,0.0,85,0.00,,,0.39,185,weatherlink.com 1.10,2013-02-19 22:51:00,
2013-02-19 15:06:00,43.3,38.0,29.77,North,-999,0.0,0.0,80,0.00,,,0.39,69,weatherlink.com 1.10,2013-02-19 23:06:00,
2013-02-19 15:21:00,42.7,36.0,29.77,North,-999,0.0,0.0,78,0.00,,,0.39,26,weatherlink.com 1.10,2013-02-19 23:21:00,
2013-02-19 15:36:00,42.5,37.0,29.76,North,-999,0.0,0.0,82,0.00,,,0.39,40,weatherlink.com 1.10,2013-02-19 23:36:00,
2013-02-19 15:51:00,42.4,36.0,29.77,North,-999,0.0,0.0,79,0.00,,,0.39,25,weatherlink.com 1.10,2013-02-19 23:51:00,
2013-02-19 16:06:00,42.5,37.0,29.77,North,-999,0.0,0.0,80,0.00,,,0.39,47,weatherlink.com 1.10,2013-02-20 00:06:00,
2013-02-19 16:21:00,42.3,37.0,29.75,North,-999,0.0,0.0,81,0.00,,,0.39,37,weatherlink.com 1.10,2013-02-20 00:21:00,
2013-02-19 16:36:00,42.0,37.0,29.75,North,360,0.0,0.0,82,0.00,,,0.39,32,weatherlink.com 1.10,2013-02-20 00:36:00,
2013-02-19 16:51:00,41.8,36.0,29.75,North,360,0.0,0.0,81,0.00,,,0.39,23,weatherlink.com 1.10,2013-02-20 00:51:00,
2013-02-19 17:06:00,41.4,36.0,29.75,North,360,0.0,0.0,81,0.00,,,0.39,14,weatherlink.com 1.10,2013-02-20 01:06:00,
2013-02-19 17:21:00,41.1,36.0,29.75,North,-999,0.0,0.0,81,0.00,,,0.39,11,weatherlink.com 1.10,2013-02-20 01:21:00,
2013-02-19 17:36:00,41.0,36.0,29.75,North,-999,0.0,0.0,83,0.00,,,0.39,7,weatherlink.com 1.10,2013-02-20 01:36:00,
2013-02-19 17:51:00,40.6,36.0,29.75,North,-999,0.0,0.0,82,0.00,,,0.39,0,weatherlink.com 1.10,2013-02-20 01:51:00,
2013-02-19 18:06:00,40.4,35.0,29.75,North,-999,0.0,0.0,81,0.00,,,0.39,0,weatherlink.com 1.10,2013-02-20 02:06:00,
2013-02-19 18:21:00,40.2,35.0,29.76,North,-999,0.0,0.0,81,0.00,,,0.39,0,weatherlink.com 1.10,2013-02-20 02:21:00,
2013-02-19 18:36:00,40.2,35.0,29.76,North,360,0.0,0.0,81,0.00,,,0.39,0,weatherlink.com 1.10,2013-02-20 02:36:00,
2013-02-19 18:51:00,40.0,35.0,29.76,North,360,0.0,0.0,81,0.00,,,0.39,0,weatherlink.com 1.10,2013-02-20 02:51:00,
2013-02-19 19:06:00,39.9,35.0,29.77,North,-999,0.0,0.0,81,0.00,,,0.39,0,weatherlink.com 1.10,2013-02-20 03:06:00,
2013-02-19 19:21:00,39.9,35.0,29.77,North,-999,0.0,0.0,81,0.00,,,0.39,0,weatherlink.com 1.10,2013-02-20 03:21:00,
2013-02-19 19:36:00,39.8,35.0,29.77,North,-999,0.0,0.0,82,0.00,,,0.39,0,weatherlink.com 1.10,2013-02-20 03:36:00,
2013-02-19 19:51:00,39.9,35.0,29.77,North,-999,0.0,0.0,81,0.00,,,0.39,0,weatherlink.com 1.10,2013-02-20 03:51:00,
2013-02-19 20:06:00,40.0,35.0,29.77,North,-999,0.0,0.0,81,0.00,,,0.39,0,weatherlink.com 1.10,2013-02-20 04:06:00,
2013-02-19 20:21:00,39.9,35.0,29.77,North,-999,0.0,0.0,81,0.00,,,0.39,0,weatherlink.com 1.10,2013-02-20 04:21:00,
2013-02-19 20:36:00,39.9,34.0,29.78,North,360,0.0,0.0,79,0.00,,,0.39,0,weatherlink.com 1.10,2013-02-20 04:36:00,
2013-02-19 20:51:00,39.9,34.0,29.79,North,-999,0.0,0.0,80,0.00,,,0.39,0,weatherlink.com 1.10,2013-02-20 04:51:00,
2013-02-19 21:06:00,39.8,34.0,29.79,North,-999,0.0,0.0,80,0.00,,,0.39,0,weatherlink.com 1.10,2013-02-20 05:06:00,
2013-02-19 21:21:00,39.8,34.0,29.79,North,-999,0.0,0.0,79,0.00,,,0.39,0,weatherlink.com 1.10,2013-02-20 05:21:00,
2013-02-19 21:36:00,39.7,34.0,29.80,North,-999,0.0,0.0,79,0.00,,,0.39,0,weatherlink.com 1.10,2013-02-20 05:36:00,
2013-02-19 21:51:00,39.6,34.0,29.80,North,-999,0.0,0.0,80,0.00,,,0.39,0,weatherlink.com 1.10,2013-02-20 05:51:00,
2013-02-19 22:06:00,39.4,33.0,29.80,North,-999,0.0,0.0,79,0.00,,,0.39,0,weatherlink.com 1.10,2013-02-20 06:06:00,
2013-02-19 22:21:00,39.4,33.0,29.80,North,360,0.0,0.0,77,0.00,,,0.39,0,weatherlink.com 1.10,2013-02-20 06:21:00,
2013-02-19 22:36:00,39.5,33.0,29.81,North,360,0.0,0.0,77,0.00,,,0.39,0,weatherlink.com 1.10,2013-02-20 06:36:00,
2013-02-19 22:51:00,39.3,33.0,29.82,North,-999,0.0,0.0,78,0.00,,,0.39,0,weatherlink.com 1.10,2013-02-20 06:51:00,
2013-02-19 23:06:00,38.7,33.0,29.82,North,360,0.0,0.0,81,0.00,,,0.39,0,weatherlink.com 1.10,2013-02-20 07:06:00,
2013-02-19 23:21:00,37.8,33.0,29.83,North,-999,0.0,0.0,84,0.00,,,0.39,0,weatherlink.com 1.10,2013-02-20 07:21:00,
2013-02-19 23:36:00,37.3,33.0,29.83,North,360,0.0,0.0,84,0.00,,,0.39,0,weatherlink.com 1.10,2013-02-20 07:36:00,
2013-02-19 23:51:00,37.5,33.0,29.84,North,-999,0.0,0.0,83,0.00,,,0.39,0,weatherlink.com 1.10,2013-02-20 07:51:00,